Voltar ao catálogo

STARLINK-30431

AtivoComunicaçõesVLEO
NORAD 57852·PAYLOAD·🇺🇸 United States

Lançado Sep 12, 2023 de Vandenberg Space Force Base

Loading…

Próximas Passagens (próximas 24 horas)

TLE

AtualizadoSource: CelesTrak SupGP

Época: Sep 14, 2026, 22:26 UTC

1 57852C 23141N   26257.93520833 -.00033833  00000+0 -99970-3 0  2578
2 57852  53.1582 123.6767 0001354  74.1160 243.1126 15.34403865    16

Acompanhe STARLINK-30431 em tempo real com AllMySat

Download on the App Store